[[{"header":{"parameterUnit":"m.s-1","parameterCategory":1,"la1":30.2991,"la2":30.254,"lo1":-89.0895,"lo2":-89.0444,"dy":0.0017,"dx":0.0017,"nx":28,"ny":28,"refTime":"2024-02-02T09:00:00:Z","depth":0,"parameterNumber":2,"parameterNumberName":"U-component_of_WINDS"},"data":[0,0,0,0,0,0,0,0,0,0,0,0,0,0,0,0,0,0,0,0,0,0,0,0,0,0,0,0,0,0,0,0,0,0,0,0,0,0,0,0,0,0,0,0,0,0,0,0,0,0,0,0,0,0,0,0,0,0,-0.5115,-0.5115,0,-0.5095,-0.5095,-0.5095,-0.5058,-0.5057,-0.5056,-0.5056,-0.5037,-0.5037,-0.5037,0,0,0,0,0,0,0,0,0,0,0,0,0,-0.5122,-0.5122,-0.5115,-0.5115,-0.5114,-0.5095,-0.5095,-0.5095,-0.5058,-0.5057,-0.5056,-0.5055,-0.5037,-0.5037,-0.5037,0,0,0,0,0,0,0,0,0,0,0,0,0,-0.5113,-0.5123,-0.5115,-0.5094,-0.5092,-0.5095,-0.5095,-0.5095,-0.5058,-0.5057,-0.5056,-0.5055,-0.5037,-0.5037,-0.5037,-0.506,0,0,-0.5038,-0.5038,0,0,0,0,0,0,0,0,-0.5113,-0.5112,-0.5097,-0.5095,-0.5093,-0.5078,-0.5091,-0.5083,-0.5058,-0.5071,-0.5056,-0.5054,-0.5051,-0.505,-0.5049,-0.5059,-0.5058,-0.5038,-0.5038,-0.5038,-0.5038,0,0,0,0,0,0,0,-0.5114,-0.5113,-0.5107,-0.5097,-0.5094,-0.5086,-0.5083,-0.5089,-0.5067,-0.507,-0.5067,-0.5065,-0.505,-0.5049,-0.5048,-0.5058,-0.5038,-0.5038,-0.5038,-0.5038,-0.5087,-0.5088,0,0,0,0,0,0,-0.5118,-0.5114,-0.5108,-0.5106,-0.5101,-0.5087,-0.5084,-0.5084,-0.5067,-0.5064,-0.5066,-0.5063,-0.5049,-0.5048,-0.5047,-0.5073,-0.5038,-0.5038,-0.5038,-0.5086,-0.5087,-0.5088,0,0,0,0,0,0,-0.5118,-0.5117,-0.5108,-0.5109,-0.5108,-0.5088,-0.5088,-0.5084,-0.5083,-0.5064,-0.5061,-0.5069,-0.5048,-0.5047,-0.5057,-0.5072,-0.5038,-0.5039,-0.5084,-0.5086,-0.5088,-0.5126,0,0,0,0,0,0,-0.5118,-0.5118,-0.5126,-0.511,-0.5108,-0.5118,-0.5089,-0.5084,-0.5083,-0.508,-0.5066,-0.5063,-0.5047,-0.5057,-0.5057,-0.5072,-0.5039,-0.5083,-0.5085,-0.5087,-0.5123,-0.5128,-0.5133,0,0,0,0,0,-0.5119,-0.5137,-0.5126,-0.5126,-0.5117,-0.5119,-0.5118,-0.5099,-0.5084,-0.5093,-0.5081,-0.5063,-0.5071,-0.5058,-0.5059,-0.5073,-0.5082,-0.5084,-0.5087,-0.5121,-0.5127,-0.5133,0,0,0,0,0,0,-0.5155,-0.5135,-0.5122,-0.5136,-0.513,-0.5113,-0.5122,-0.5107,-0.5105,-0.5101,-0.5079,-0.5076,-0.509,-0.5082,-0.5069,-0.5095,-0.5073,-0.5076,-0.5099,-0.5105,-0.511,-0.5111,-0.5039,0,0,0,0,0,-0.5165,-0.5168,-0.515,-0.5164,-0.5161,-0.5143,-0.5143,-0.5129,-0.5121,-0.5119,-0.5108,-0.5101,-0.5102,-0.5104,-0.5103,-0.5122,-0.5119,-0.5132,-0.5137,-0.5142,-0.5144,-0.5154,-0.516,-0.5097,-0.5097,-0.5097,0,0,-0.5185,-0.5174,-0.5177,-0.5171,-0.5164,-0.5168,-0.514,-0.5146,-0.5148,-0.5119,-0.5128,-0.512,-0.5112,-0.5126,-0.5132,-0.5121,-0.5161,-0.5145,-0.5149,-0.5149,-0.5157,-0.5163,-0.5169,-0.5098,-0.5098,-0.5098,0,0,-0.5224,-0.5216,-0.5227,-0.5221,-0.5211,-0.5198,-0.5201,-0.5187,-0.518,-0.5189,-0.5168,-0.5171,-0.5173,-0.5168,-0.5166,-0.5204,-0.5187,-0.5205,-0.5231,-0.5241,-0.5246,-0.525,-0.5264,-0.5269,-0.5207,-0.5207,-0.5207,0,-0.525,-0.5254,-0.5234,-0.5241,-0.5239,-0.5213,-0.5224,-0.522,-0.5211,-0.521,-0.5198,-0.52,-0.5193,-0.5206,-0.5216,-0.5215,-0.5217,-0.5206,-0.5247,-0.5251,-0.5254,-0.5267,-0.5273,-0.5209,-0.5209,-0.5209,-0.5209,0,-0.5287,-0.5291,-0.5301,-0.5293,-0.5292,-0.5301,-0.5283,-0.5285,-0.5272,-0.5261,-0.5271,-0.5261,-0.5259,-0.5261,-0.5248,-0.5273,-0.5266,-0.5251,-0.5228,-0.5263,-0.5275,-0.5279,-0.5213,-0.5212,-0.5211,-0.5211,0,0,-0.5347,-0.5328,-0.5332,-0.5329,-0.5317,-0.5319,-0.5328,-0.5325,-0.5327,-0.5322,-0.5329,-0.5332,-0.5318,-0.5315,-0.5302,-0.5311,-0.5342,-0.5294,-0.5294,-0.5303,-0.5369,-0.538,-0.5386,-0.5331,-0.5332,-0.5333,-0.5369,0,-0.5383,-0.5395,-0.5378,-0.5395,-0.5398,-0.5374,-0.5381,-0.5375,-0.5366,-0.5368,-0.5358,-0.536,-0.5341,-0.5339,-0.5347,-0.5336,-0.5355,-0.5334,-0.5338,-0.5338,-0.534,-0.5392,-0.5404,-0.5439,-0.5374,-0.5375,-0.5375,0,-0.5426,-0.5423,-0.544,-0.5427,-0.5428,-0.5435,-0.5431,-0.5434,-0.5426,-0.5419,-0.5417,-0.5401,-0.5409,-0.5388,-0.5399,-0.5385,-0.5386,-0.5381,-0.5382,-0.5382,-0.5358,-0.5393,-0.545,-0.5455,-0.5382,-0.5382,-0.5381,0,-0.5468,-0.5468,-0.5478,-0.5476,-0.5462,-0.5467,-0.5461,-0.5453,-0.5453,-0.5451,-0.5451,-0.5449,-0.5449,-0.5448,-0.5433,-0.5419,-0.5446,-0.5424,-0.5441,-0.5441,-0.5447,-0.5446,-0.5505,-0.5448,-0.5448,-0.5448,-0.5448,0,-0.5509,-0.552,-0.5497,-0.5503,-0.5516,-0.5496,-0.5509,-0.5501,-0.5494,-0.5499,-0.5479,-0.5484,-0.5463,-0.5467,-0.5455,-0.5466,-0.5466,-0.546,-0.5457,-0.5462,-0.5463,-0.5462,-0.5459,-0.5449,-0.5449,-0.5449,-0.5448,0,-0.5558,-0.5543,-0.5552,-0.5538,-0.5535,-0.5545,-0.5533,-0.5538,-0.5528,-0.5534,-0.5535,-0.5519,-0.5522,-0.5506,-0.5506,-0.5499,-0.5516,-0.5508,-0.5518,-0.5515,-0.5533,-0.5532,-0.5592,-0.56,-0.5539,-0.5539,-0.554,0,-0.5585,-0.5593,-0.558,-0.5582,-0.5577,-0.558,-0.558,-0.5562,-0.5562,-0.5556,-0.5562,-0.5563,-0.5563,-0.5569,-0.5557,-0.5558,-0.555,-0.5571,-0.555,-0.5555,-0.555,-0.555,-0.5551,-0.5576,-0.5576,-0.5577,-0.5578,0,-0.5635,-0.5627,-0.5627,-0.5626,-0.5626,-0.5624,-0.562,-0.5623,-0.5603,-0.5605,-0.5608,-0.5608,-0.5608,-0.5609,-0.5608,-0.5602,-0.5587,-0.5585,-0.5588,-0.5593,-0.5598,-0.5596,-0.553,-0.5583,-0.5582,-0.5582,-0.5582,-0.5582,-0.5673,-0.568,-0.5672,-0.5673,-0.5668,-0.5666,-0.567,-0.5661,-0.5662,-0.5661,-0.565,-0.5655,-0.5649,-0.5644,-0.5641,-0.5645,-0.5635,-0.564,-0.5642,-0.5643,-0.5646,-0.5598,-0.5644,-0.5644,-0.5644,-0.5644,-0.5644,0,-0.5722,-0.5716,-0.5717,-0.5713,-0.5714,-0.57,-0.5695,-0.5698,-0.5702,-0.5697,-0.5697,-0.5701,-0.5702,-0.5691,-0.5692,-0.5697,-0.569,-0.5698,-0.5697,-0.5696,-0.5655,-0.5652,-0.5703,-0.5703,-0.5703,-0.5703,-0.5703,-0.5703,-0.5747,-0.5757,-0.5749,-0.5757,-0.5751,-0.5755,-0.5754,-0.5751,-0.5747,-0.5752,-0.5753,-0.5746,-0.5739,-0.5739,-0.574,-0.5737,-0.5738,-0.5748,-0.5743,-0.5705,-0.5699,-0.5693,-0.569,-0.5749,-0.5749,-0.5783,-0.5783,-0.5784]},{"header":{"parameterUnit":"m.s-1","parameterCategory":1,"la1":30.2991,"la2":30.254,"lo1":-89.0895,"lo2":-89.0444,"dy":0.0017,"dx":0.0017,"nx":28,"ny":28,"refTime":"2024-02-02T09:00:00:Z","depth":0,"parameterNumber":3,"parameterNumberName":"V-component_of_WINDS"},"data":[0,0,0,0,0,0,0,0,0,0,0,0,0,0,0,0,0,0,0,0,0,0,0,0,0,0,0,0,0,0,0,0,0,0,0,0,0,0,0,0,0,0,0,0,0,0,0,0,0,0,0,0,0,0,0,0,0,0,0.6913,0.6913,0,0.6948,0.6949,0.6949,0.7004,0.7004,0.7005,0.7006,0.7041,0.7041,0.7041,0,0,0,0,0,0,0,0,0,0,0,0,0,0.689,0.689,0.6913,0.6913,0.6914,0.6948,0.6949,0.6949,0.7003,0.7005,0.7006,0.7007,0.7041,0.7041,0.7041,0,0,0,0,0,0,0,0,0,0,0,0,0,0.691,0.689,0.6913,0.6945,0.6948,0.6948,0.6949,0.6949,0.7003,0.7005,0.7006,0.7007,0.7041,0.7041,0.7041,0.7012,0,0,0.7041,0.7041,0,0,0,0,0,0,0,0,0.6909,0.6911,0.694,0.6943,0.6946,0.6973,0.6954,0.697,0.7003,0.6982,0.7006,0.7008,0.7017,0.7019,0.7022,0.7013,0.7015,0.7041,0.7041,0.7041,0.7041,0,0,0,0,0,0,0,0.6907,0.691,0.6927,0.694,0.6944,0.6957,0.6961,0.6957,0.6991,0.6984,0.6988,0.6992,0.7019,0.7022,0.7024,0.7015,0.7041,0.7041,0.7041,0.7041,0.6985,0.6983,0,0,0,0,0,0,0.6901,0.6908,0.6926,0.6928,0.6931,0.6956,0.6961,0.6963,0.6991,0.6997,0.699,0.6994,0.7022,0.7024,0.7025,0.6994,0.7041,0.7041,0.7041,0.6986,0.6985,0.6983,0,0,0,0,0,0,0.6901,0.6903,0.6924,0.6919,0.6923,0.6955,0.6957,0.6963,0.6966,0.6996,0.7002,0.6988,0.7023,0.7025,0.7015,0.6995,0.7041,0.7041,0.6988,0.6986,0.6984,0.693,0,0,0,0,0,0,0.69,0.6902,0.6892,0.6918,0.6923,0.6914,0.6955,0.6962,0.6966,0.6972,0.6995,0.7,0.7024,0.7015,0.7015,0.6996,0.7041,0.699,0.6987,0.6984,0.6933,0.6926,0.6919,0,0,0,0,0,0.6899,0.6874,0.6891,0.6893,0.6911,0.6913,0.6915,0.6944,0.6965,0.6954,0.6973,0.6999,0.6997,0.7013,0.7014,0.6995,0.6991,0.6988,0.6985,0.6936,0.6927,0.6919,0,0,0,0,0,0,0.6843,0.6878,0.6897,0.6881,0.6893,0.6922,0.691,0.6933,0.694,0.6944,0.6979,0.6983,0.6969,0.6981,0.6998,0.6969,0.6998,0.6995,0.6961,0.6953,0.6946,0.6944,0.7041,0,0,0,0,0,0.6829,0.6829,0.6859,0.6841,0.6847,0.6877,0.6879,0.69,0.6914,0.692,0.6938,0.695,0.6953,0.6953,0.6957,0.6935,0.6941,0.6922,0.6915,0.691,0.6906,0.6896,0.6888,0.6972,0.6972,0.6972,0,0,0.68,0.6819,0.6816,0.6831,0.6843,0.6841,0.6881,0.6877,0.6876,0.6919,0.6911,0.6925,0.6941,0.6925,0.6919,0.6934,0.6885,0.6905,0.69,0.69,0.6892,0.6884,0.6877,0.697,0.697,0.697,0,0,0.6746,0.676,0.6748,0.6759,0.6778,0.6798,0.6795,0.682,0.6831,0.6824,0.6856,0.6855,0.6858,0.6868,0.6874,0.6824,0.6848,0.6824,0.6788,0.6777,0.6771,0.6765,0.6748,0.6741,0.6821,0.6821,0.6821,0,0.6707,0.6706,0.6738,0.6732,0.6738,0.6777,0.6765,0.6774,0.6792,0.6795,0.6812,0.6818,0.6831,0.6818,0.6806,0.6809,0.6807,0.6822,0.6769,0.6764,0.6759,0.6743,0.6736,0.6818,0.6818,0.6818,0.6819,0,0.6658,0.6657,0.6644,0.6662,0.6666,0.6656,0.6686,0.6686,0.6707,0.6725,0.6717,0.6735,0.6743,0.6742,0.6761,0.6732,0.6741,0.6763,0.6794,0.6748,0.6733,0.6727,0.6813,0.6814,0.6815,0.6816,0,0,0.657,0.6606,0.6601,0.661,0.6633,0.6632,0.6625,0.6634,0.6633,0.6644,0.6639,0.6641,0.6662,0.6668,0.6689,0.668,0.664,0.6704,0.6705,0.6692,0.6609,0.6592,0.6584,0.6656,0.6655,0.6654,0.6608,0,0.6521,0.6511,0.654,0.6522,0.6521,0.6559,0.6552,0.6566,0.6582,0.6584,0.6602,0.6603,0.6631,0.6635,0.6627,0.6646,0.6624,0.665,0.6651,0.6651,0.6647,0.6577,0.6559,0.6514,0.6602,0.6601,0.66,0,0.6463,0.6472,0.6455,0.648,0.648,0.6474,0.6485,0.6486,0.6501,0.6514,0.6521,0.6547,0.6541,0.657,0.6562,0.6579,0.6581,0.659,0.6589,0.6591,0.6623,0.6577,0.6501,0.6494,0.6592,0.6592,0.6593,0,0.6401,0.6409,0.64,0.6406,0.6435,0.643,0.6441,0.6459,0.6462,0.6471,0.6474,0.6481,0.6486,0.6491,0.6517,0.6536,0.6506,0.6537,0.6517,0.6516,0.6509,0.6509,0.6432,0.6509,0.6509,0.651,0.651,0,0.6344,0.6332,0.6373,0.6367,0.6355,0.6387,0.6374,0.6389,0.6404,0.6402,0.6435,0.6432,0.6466,0.6467,0.6487,0.6478,0.6479,0.649,0.6495,0.6487,0.6486,0.6489,0.6493,0.6508,0.6508,0.6508,0.6509,0,0.6273,0.63,0.6293,0.6321,0.6327,0.6317,0.6341,0.6336,0.6355,0.6352,0.6353,0.6383,0.6385,0.6412,0.642,0.6434,0.6417,0.6428,0.6411,0.6415,0.6393,0.6395,0.6316,0.6308,0.6389,0.6389,0.6388,0,0.6235,0.6227,0.6254,0.6255,0.6266,0.6267,0.6271,0.6302,0.6305,0.6323,0.6316,0.6322,0.6328,0.633,0.6352,0.6358,0.637,0.6342,0.6372,0.6364,0.6371,0.6371,0.637,0.6336,0.6335,0.6334,0.6334,0,0.6165,0.6179,0.6184,0.6193,0.6197,0.6206,0.6217,0.6216,0.6251,0.6252,0.6256,0.626,0.6269,0.6274,0.6284,0.6296,0.632,0.6324,0.632,0.6312,0.6303,0.6308,0.6395,0.6326,0.6327,0.6327,0.6328,0.6328,0.611,0.6105,0.6123,0.6128,0.6139,0.6149,0.6146,0.6165,0.6169,0.6179,0.6197,0.6198,0.6214,0.6231,0.624,0.6241,0.6255,0.6249,0.6247,0.6245,0.6241,0.6302,0.6243,0.6243,0.6243,0.6243,0.6244,0,0.6042,0.6056,0.6059,0.6074,0.6077,0.6101,0.6114,0.6115,0.6116,0.6129,0.6135,0.6139,0.6144,0.6166,0.6173,0.617,0.6181,0.617,0.6171,0.6173,0.6227,0.6231,0.6161,0.6161,0.6161,0.6161,0.6161,0.6161,0.6007,0.5999,0.6015,0.6014,0.6028,0.6029,0.6035,0.6044,0.6054,0.6058,0.6062,0.6077,0.6094,0.6103,0.6108,0.6115,0.6116,0.6102,0.6112,0.6162,0.617,0.6177,0.6181,0.6102,0.6102,0.6058,0.6058,0.6057]}]]